Flag for U.S.A. Weather past 2 weeks in Winston-Salem, North Carolina, U.S.A.

Now
66 °F

Rain. Fog.


Feels Like: 66 °F
Forecast: 65 / 71 °F
Wind: 7 mph from Northeast

Location: Smith Reynolds Airport

Current Time: Aug 1, 2014 at 12:01:54 PM

Latest Report: Aug 1, 2014 at 10:54 AM


Visibility: 3 mi

Pressure: 30.16 "Hg

Humidity: 90%

Dew point: 63 °F

Location of Winston-SalemLocation

Historic Weather in Winston-Salem — Graph

°F

Winston-Salem temperature yesterday

Maximum temperature yesterday: 77 °F (at 12:04 PM)
Minimum temperature yesterday: 64 °F (at 6:54 AM)
Average temperature yesterday: 71 °F

Past Weeks' High & Low Weather Summary

 TemperatureHumidityPressure
High90 °F (Jul 23, 2:54 PM)97% (Aug 1, 1:54 AM)30.21 "Hg (Aug 1, 1:54 AM)
Low60 °F (Jul 30, 6:54 AM)33% (Jul 28, 3:54 PM)29.77 "Hg (Jul 27, 10:54 PM)
Average74 °F71%30.03 "Hg
* Reported Jul 17 10:54 AM — Aug 1 10:54 AM, Winston-Salem, Weather by CustomWeather, © 2014

Note: Actual official high and low records may vary slightly from our data, if they occured in-between our weather recording intervals... More about our weather records

Advertising

Winston-Salem weather history for previous 24 hours

 ConditionsComfort  
Time TempWeatherWind HumidityBarometerVisibility
10:54 AM
Aug 1
66 °FRain. Fog.7 mph90%30.16 "Hg3 mi
10:01 AM65 °FRain. Fog.6 mph94%30.18 "Hg3 mi
9:03 AM65 °FRain. Fog.7 mph94%30.18 "Hg4 mi
8:03 AM64 °FRain. Mostly cloudy.7 mph94%30.17 "Hg7 mi
7:54 AM64 °FLight rain. Mostly cloudy.7 mph94%30.14 "Hg7 mi
6:54 AM64 °FLight rain. Mostly cloudy.8 mph90%30.12 "Hg9 mi
5:54 AM65 °FLight rain. Mostly cloudy.8 mph91%30.11 "Hg10 mi
4:54 AM65 °FLight rain. Mostly cloudy.8 mph94%30.13 "Hg9 mi
3:54 AM66 °FLight rain. Overcast.6 mph93%30.13 "Hg10 mi
2:54 AM67 °FLight rain. Passing clouds.5 mph93%30.11 "Hg10 mi
1:54 AM67 °FLight rain. Passing clouds.No wind97%30.14 "Hg9 mi
12:54 AM67 °FLight rain. Low clouds.No wind93%30.15 "Hg9 mi
11:54 PM
Jul 31
68 °FLight rain. Mostly cloudy.3 mph90%30.16 "Hg10 mi
10:54 PM68 °FLight rain. Mostly cloudy.No wind90%30.15 "Hg10 mi
9:54 PM71 °FLight rain. Mostly cloudy.3 mph87%30.14 "Hg10 mi
8:54 PM71 °FMostly cloudy.3 mph87%30.14 "Hg10 mi
7:54 PM72 °FLight rain. Overcast.3 mph81%30.14 "Hg10 mi
6:54 PM74 °FOvercast.6 mph79%30.13 "Hg10 mi
5:54 PM77 °FMore clouds than sun.No wind66%30.12 "Hg10 mi
4:54 PM77 °FBroken clouds.No wind69%30.12 "Hg10 mi
3:54 PM77 °FPartly sunny.5 mph66%30.12 "Hg10 mi
2:54 PM76 °FPassing clouds.3 mph74%30.12 "Hg10 mi
1:54 PM77 °FPassing clouds.No wind62%30.13 "Hg10 mi
12:54 PM77 °FScattered clouds.No wind64%30.13 "Hg10 mi
12:04 PM77 °FPartly sunny.No wind64%30.17 "Hg10 mi
Weather by CustomWeather, © 2014

See weather overviewHow to use our weather pages